Regional Weather Roundup
Issued by NWS

Home | Current Version | Previous Version | Graphics & Text | Print | Product List | Glossary On
Versions: 1 2 3 4 5 6 7 8 9 10 11 12 13 14 15 16 17 18 19 20 21 22 23 24 25 26 27 28 29 30 31 32 33 34 35 36 37 38 39 40 41 42 43 44 45 46 47 48 49 50
715
ASUS44 KMEG 231400
RWRTN
TENNESSEE HOURLY STATE WEATHER ROUNDUP
NATIONAL WEATHER SERVICE MEMPHIS TN
900 AM CDT WED AUG 23 2017

TNZ002-004-019-021-049-052-054-088>092-231500-
WEST TENNESSEE

CITY           SKY/WX    TMP DP  RH WIND       PRES   REMARKS
MEMPHIS INTL   PTSUNNY   79  69  71 E6        30.05R
NWS MEMPHIS      N/A     78 N/A N/A MISG        N/A
JACKSON        SUNNY     76  70  82 NE7       30.05F
DYERSBURG      CLOUDY    72  66  81 NE8       30.08R
$$

TNZ008-025-027-028-033-062-065-066-231500-
NORTH MIDDLE TENNESSEE

CITY           SKY/WX    TMP DP  RH WIND       PRES   REMARKS
NASHVILLE      PTSUNNY   74  68  81 VRB6      30.05R
CLARKSVILLE    SUNNY     72  64  76 N6        30.06R
SMYRNA         PTSUNNY   74  68  81 N6        30.05R
CROSSVILLE     SUNNY     72  66  81 N7        30.06R
$$

TNZ061-075-076-078-094-096-097-231500-
SOUTH MIDDLE TENNESSEE

CITY           SKY/WX    TMP DP  RH WIND       PRES   REMARKS
$$

TNZ017-018-042-046-047-231500-
NORTHEAST TENNESSEE

CITY           SKY/WX    TMP DP  RH WIND       PRES   REMARKS
TRI CITIES     CLOUDY    74  69  85 CALM      30.00R
$$

TNZ012-013-036-069-073-074-231500-
CENTRAL EAST TENNESSEE

CITY           SKY/WX    TMP DP  RH WIND       PRES   REMARKS
KNOXVILLE      PTSUNNY   77  68  73 NE7       29.99R
OAK RIDGE      SUNNY     80  65  59 NW6       30.00S
GATLINBURG     CLOUDY    73  70  88 W3        29.99S
$$

TNZ083-085-099-231500-
SOUTHEAST TENNESSEE

CITY           SKY/WX    TMP DP  RH WIND       PRES   REMARKS
CHATTANOOGA    MOSUNNY   78  68  71 N6        29.99F
$$

SKY/WX REPORTED AS FAIR MEANS FEW OR NO CLOUDS BELOW
12 THOUSAND FEET.





USA.gov is the U.S. government's official web portal to all federal, state and local government web resources and services.